Tracking 25707 objects as of 29-Jun-2022
HD Live streaming from Space Station
objects crossing your sky now

STARLINK-1517

Track STARLINK-1517 now!
10-day predictions
STARLINK-1517 is classified as:


NORAD ID: 45787
Int'l Code: 2020-038BK
Perigee: 552.9 km
Apogee: 555.8 km
Inclination: 53.1 °
Period: 95.6 minutes
Semi major axis: 6925 km
RCS: Unknown
Launch date: June 13, 2020
Source: United States (US)
Launch site: AIR FORCE EASTERN TEST RANGE (AFETR)
aabbcc
Your satellite tracking list
Your tracking list is empty




NASA's NSSDC Master Catalog

Two Line Element Set (TLE):
1 45787U 20038BK  22180.55810285 -.00002302  00000-0 -13574-3 0  9993
2 45787  53.0549 133.1182 0002072  61.2884 298.8313 15.06388914113417
Source of the keplerian elements: AFSPC